Location: Dentlein
(49.1477°N, 10.4231°E)
Time: 21:51:26
(UTC+00:00)

RESURS DK-1 - Pass Details

Date: 23 May 2024
Orbit: 541 x 547 km, 69.9° (Epoch: 14 June)

Event Time Altitude Azimuth Distance (km) Brightness Sun altitude
Rises 02:04:02 0° 328° (NNW) 2,722 6.1 -10.7°
Reaches altitude 10° 02:06:15 10° 326° (NW) 1,825 5.2 -10.5°
Maximum altitude 02:10:18 70° 243° (WSW) 586 2.2 -10.1°
Drops below altitude 10° 02:14:19 10° 160° (SSE) 1,814 4.7 -9.6°
Sets 02:16:31 0° 158° (SSE) 2,704 5.6 -9.4°
